Location: McFarlands Corners
(41.4117°N, 81.3382°W)
Time: 05:04:24
(UTC+00:00)

Tiros 1 - Pass Details

Date: 17 February 2026
Orbit: 618 x 649 km, 48.4° (Epoch: 5 March)

Event Time Altitude Azimuth Distance (km) Brightness Sun altitude
Rises 14:29:45 0° 241° (WSW) 2,907 10.3 21.2°
Reaches altitude 10° 14:32:04 10° 242° (WSW) 1,997 9.5 21.5°
Maximum altitude 14:36:40 85° 329° (NNW) 630 7.4 22.2°
Drops below altitude 10° 14:41:15 10° 61° (ENE) 1,988 10.0 22.8°
Sets 14:43:34 0° 62° (ENE) 2,893 10.7 23.1°
